SJX823 RJBB-RCTP

Flight info

Callsign SJX823
Flight time N/A
Altitude 38000
Route OMGOR Y34 HKC Y50 IGMON A1 DRAKE DRAKE1A
Aircraft A359/H-SDE2E3GHIJ3J4J5LM1ORWXY/LB1D1

Departure

Time 2026-04-29 09:21
Airport Kansai International Airport (RJBB)

Arrival

Time N/A
Airport Taiwan Taoyuan International Airport (RCTP)
Time Latitude Longitude Altitude Speed Heading
2026-04-29 09:05 34.43067 135.23811 25 ft 0 kts 141°
2026-04-29 09:05 34.43069 135.23809 25 ft 2 kts 141°
2026-04-29 09:06 34.43089 135.23789 31 ft 4 kts 141°
2026-04-29 09:06 34.43108 135.23771 31 ft 3 kts 141°
2026-04-29 09:06 34.43128 135.23759 29 ft 4 kts 199°
2026-04-29 09:06 34.43146 135.23778 31 ft 4 kts 234°
2026-04-29 09:07 34.43151 135.23786 31 ft 0 kts 231°
2026-04-29 09:10 34.43142 135.23773 31 ft 8 kts 231°
2026-04-29 09:11 34.43090 135.23695 29 ft 13 kts 231°
2026-04-29 09:11 34.43030 135.23600 29 ft 15 kts 241°
2026-04-29 09:11 34.43020 135.23477 30 ft 15 kts 257°
2026-04-29 09:11 34.42958 135.23371 27 ft 16 kts 231°
2026-04-29 09:12 34.42931 135.23252 28 ft 14 kts 303°
2026-04-29 09:12 34.42997 135.23183 29 ft 12 kts 322°
2026-04-29 09:12 34.43066 135.23115 28 ft 14 kts 321°
2026-04-29 09:12 34.43135 135.23046 32 ft 12 kts 321°
2026-04-29 09:13 34.43194 135.22988 35 ft 11 kts 320°
2026-04-29 09:13 34.43256 135.22928 35 ft 12 kts 321°
2026-04-29 09:13 34.43327 135.22860 35 ft 14 kts 321°
2026-04-29 09:13 34.43405 135.22783 35 ft 15 kts 321°
2026-04-29 09:14 34.43491 135.22700 35 ft 16 kts 321°
2026-04-29 09:14 34.43584 135.22610 35 ft 18 kts 321°
2026-04-29 09:14 34.43682 135.22514 35 ft 19 kts 321°
2026-04-29 09:14 34.43779 135.22412 35 ft 17 kts 304°
2026-04-29 09:15 34.43749 135.22293 35 ft 16 kts 230°
2026-04-29 09:15 34.43674 135.22181 35 ft 18 kts 230°
2026-04-29 09:15 34.43593 135.22060 35 ft 19 kts 231°
2026-04-29 09:15 34.43505 135.21930 35 ft 21 kts 231°
2026-04-29 09:16 34.43412 135.21791 35 ft 22 kts 231°
2026-04-29 09:16 34.43314 135.21645 35 ft 23 kts 231°
2026-04-29 09:16 34.43210 135.21491 35 ft 24 kts 231°
2026-04-29 09:16 34.43102 135.21329 35 ft 25 kts 231°
2026-04-29 09:17 34.42990 135.21163 35 ft 26 kts 231°
2026-04-29 09:17 34.42910 135.21044 35 ft 5 kts 231°
2026-04-29 09:17 34.42909 135.21043 35 ft 0 kts 231°
2026-04-29 09:18 34.42909 135.21042 35 ft 1 kts 231°
2026-04-29 09:18 34.42889 135.21012 35 ft 9 kts 231°
2026-04-29 09:18 34.42835 135.20932 35 ft 16 kts 231°
2026-04-29 09:19 34.42769 135.20833 35 ft 13 kts 235°
2026-04-29 09:19 34.42766 135.20730 34 ft 14 kts 305°
2026-04-29 09:19 34.42853 135.20662 31 ft 12 kts 356°
2026-04-29 09:19 34.42921 135.20712 31 ft 12 kts 52°
2026-04-29 09:20 34.42987 135.20813 32 ft 24 kts 51°
2026-04-29 09:20 34.43233 135.21178 37 ft 87 kts 51°
2026-04-29 09:20 34.43734 135.21926 37 ft 141 kts 51°
2026-04-29 09:20 34.44423 135.22948 357 ft 161 kts 50°
2026-04-29 09:21 34.45137 135.23977 931 ft 160 kts 44°
2026-04-29 09:21 34.46144 135.24566 1359 ft 172 kts
2026-04-29 09:21 34.47327 135.24079 1568 ft 198 kts 319°
2026-04-29 09:21 34.47928 135.22524 1970 ft 218 kts 275°
2026-04-29 09:22 34.47497 135.20718 2417 ft 236 kts 239°
2026-04-29 09:22 34.46611 135.18943 2841 ft 253 kts 241°
2026-04-29 09:22 34.45762 135.17058 3586 ft 254 kts 243°
2026-04-29 09:22 34.44960 135.15165 4371 ft 254 kts 245°
2026-04-29 09:23 34.44175 135.13246 5139 ft 255 kts 246°
2026-04-29 09:23 34.43405 135.11327 5976 ft 252 kts 247°
2026-04-29 09:23 34.42645 135.09415 6836 ft 250 kts 248°
2026-04-29 09:23 34.41897 135.07522 7632 ft 250 kts 248°
2026-04-29 09:24 34.41065 135.05655 8454 ft 254 kts 239°
2026-04-29 09:24 34.39841 135.04092 9309 ft 259 kts 226°
2026-04-29 09:24 34.38436 135.02715 10149 ft 260 kts 224°
2026-04-29 09:24 34.37001 135.01350 10588 ft 275 kts 224°
2026-04-29 09:25 34.35456 134.99869 10931 ft 292 kts 224°
2026-04-29 09:25 34.33795 134.98274 11264 ft 309 kts 223°
2026-04-29 09:25 34.32658 134.97182 11493 ft 319 kts 223°
2026-04-29 09:25 34.30994 134.95344 11818 ft 329 kts 233°
2026-04-29 09:26 34.29717 134.93042 12357 ft 332 kts 242°
2026-04-29 09:26 34.28177 134.89792 13149 ft 338 kts 243°
2026-04-29 09:26 34.27009 134.87330 13919 ft 338 kts 242°
2026-04-29 09:26 34.26213 134.85665 14317 ft 340 kts 242°
2026-04-29 09:27 34.25026 134.83173 14908 ft 342 kts 242°
2026-04-29 09:27 34.23461 134.79874 15709 ft 343 kts 242°
2026-04-29 09:27 34.22654 134.78179 16087 ft 345 kts 242°
2026-04-29 09:27 34.21464 134.75693 16614 ft 347 kts 242°
2026-04-29 09:28 34.20253 134.73156 17147 ft 350 kts 242°
2026-04-29 09:28 34.18962 134.70651 17689 ft 353 kts 238°
2026-04-29 09:28 34.17548 134.68211 18211 ft 356 kts 238°
2026-04-29 09:28 34.16119 134.65758 18668 ft 359 kts 238°
2026-04-29 09:29 34.14684 134.63275 19080 ft 361 kts 238°
2026-04-29 09:29 34.11796 134.58248 19965 ft 367 kts 238°
2026-04-29 09:29 34.10348 134.55708 20424 ft 369 kts 238°
2026-04-29 09:30 34.08892 134.53150 20885 ft 371 kts 238°
2026-04-29 09:30 34.07424 134.50568 21348 ft 373 kts 238°
2026-04-29 09:30 34.05951 134.47980 21783 ft 376 kts 238°
2026-04-29 09:30 34.04467 134.45376 22201 ft 378 kts 238°
2026-04-29 09:31 34.02972 134.42754 22577 ft 381 kts 239°
2026-04-29 09:31 34.01467 134.40126 23029 ft 381 kts 239°
2026-04-29 09:31 33.99953 134.37486 23361 ft 383 kts 238°
2026-04-29 09:31 33.98421 134.34831 23662 ft 388 kts 239°
2026-04-29 09:32 33.96868 134.32167 24046 ft 390 kts 238°
2026-04-29 09:32 33.95306 134.29489 24425 ft 392 kts 238°
2026-04-29 09:32 33.93749 134.26792 24821 ft 394 kts 238°
2026-04-29 09:32 33.92179 134.24070 25213 ft 396 kts 238°
2026-04-29 09:33 33.90597 134.21347 25629 ft 398 kts 238°
2026-04-29 09:33 33.88994 134.18619 26050 ft 400 kts 238°
2026-04-29 09:33 33.87404 134.15915 26490 ft 402 kts 238°
2026-04-29 09:33 33.85756 134.13132 26898 ft 404 kts 238°
2026-04-29 09:34 33.84123 134.10382 27329 ft 405 kts 238°
2026-04-29 09:34 33.82475 134.07618 27667 ft 408 kts 238°
2026-04-29 09:34 33.80837 134.04857 28009 ft 412 kts 238°
2026-04-29 09:34 33.79174 134.02045 28433 ft 414 kts 238°
2026-04-29 09:35 33.77504 133.99229 28899 ft 415 kts 238°
2026-04-29 09:35 33.75826 133.96399 29338 ft 417 kts 238°
2026-04-29 09:35 33.74144 133.93555 29702 ft 419 kts 238°
2026-04-29 09:35 33.72444 133.90691 30018 ft 421 kts 238°
2026-04-29 09:36 33.70731 133.87819 30282 ft 425 kts 238°
2026-04-29 09:36 33.69005 133.84929 30524 ft 427 kts 238°
2026-04-29 09:36 33.67271 133.82024 30803 ft 429 kts 238°
2026-04-29 09:36 33.65532 133.79114 31093 ft 430 kts 238°
2026-04-29 09:37 33.63784 133.76186 31347 ft 431 kts 238°
2026-04-29 09:37 33.62029 133.73261 31599 ft 433 kts 238°
2026-04-29 09:37 33.60272 133.70329 31890 ft 433 kts 238°
2026-04-29 09:37 33.58517 133.67398 32233 ft 433 kts 238°
2026-04-29 09:38 33.56765 133.64475 32589 ft 431 kts 238°
2026-04-29 09:38 33.55011 133.61552 32969 ft 430 kts 238°
2026-04-29 09:38 33.53266 133.58650 33331 ft 429 kts 238°
2026-04-29 09:38 33.51523 133.55751 33640 ft 429 kts 238°
2026-04-29 09:39 33.49779 133.52855 33903 ft 429 kts 238°
2026-04-29 09:39 33.48028 133.49948 34148 ft 429 kts 238°
2026-04-29 09:39 33.46282 133.47052 34436 ft 429 kts 238°
2026-04-29 09:39 33.44538 133.44162 34701 ft 428 kts 238°
2026-04-29 09:40 33.42793 133.41278 34977 ft 428 kts 238°
2026-04-29 09:40 33.41041 133.38408 35227 ft 427 kts 238°
2026-04-29 09:40 33.39286 133.35532 35461 ft 426 kts 238°
2026-04-29 09:40 33.37537 133.32665 35642 ft 427 kts 238°
2026-04-29 09:41 33.35785 133.29792 35858 ft 428 kts 239°
2026-04-29 09:41 33.34053 133.26957 36088 ft 427 kts 239°
2026-04-29 09:41 33.32282 133.24061 36326 ft 426 kts 239°
2026-04-29 09:41 33.30554 133.21238 36627 ft 425 kts 239°
2026-04-29 09:42 33.28816 133.18402 36960 ft 422 kts 239°
2026-04-29 09:42 33.27056 133.15541 37149 ft 421 kts 239°
2026-04-29 09:42 33.25320 133.12722 37300 ft 422 kts 239°
2026-04-29 09:42 33.23608 133.09933 37490 ft 421 kts 239°
2026-04-29 09:43 33.21879 133.07112 37697 ft 421 kts 239°
2026-04-29 09:43 33.20151 133.04295 37867 ft 421 kts 239°
2026-04-29 09:43 33.18397 133.01440 38053 ft 421 kts 239°
2026-04-29 09:43 33.16661 132.98618 38062 ft 422 kts 239°
2026-04-29 09:44 33.13189 132.93021 38060 ft 423 kts 239°
2026-04-29 09:44 33.09699 132.87383 38044 ft 422 kts 239°
2026-04-29 09:45 33.06220 132.81727 38049 ft 422 kts 239°
2026-04-29 09:45 33.03303 132.75752 38049 ft 414 kts 251°
2026-04-29 09:46 33.01737 132.69192 38066 ft 411 kts 262°
2026-04-29 09:46 33.00861 132.62457 38067 ft 412 kts 263°
2026-04-29 09:47 33.00089 132.55712 38055 ft 410 kts 264°
2026-04-29 09:47 32.99306 132.48984 38071 ft 410 kts 263°
2026-04-29 09:48 32.98344 132.42296 38068 ft 412 kts 257°
2026-04-29 09:48 32.96200 132.35942 38071 ft 418 kts 244°
2026-04-29 09:49 32.92758 132.30286 38069 ft 425 kts 237°
2026-04-29 09:49 32.88989 132.24910 38075 ft 426 kts 236°
2026-04-29 09:50 32.85154 132.19527 38069 ft 426 kts 236°
2026-04-29 09:50 32.81340 132.14131 38073 ft 426 kts 236°
2026-04-29 09:51 32.77535 132.08721 38077 ft 427 kts 236°
2026-04-29 09:51 32.73729 132.03308 38069 ft 427 kts 236°
2026-04-29 09:52 32.69919 131.97900 38088 ft 427 kts 236°
2026-04-29 09:52 32.66102 131.92490 38077 ft 427 kts 236°
2026-04-29 09:53 32.62280 131.87083 38051 ft 427 kts 236°
2026-04-29 09:53 32.58453 131.81676 38074 ft 428 kts 236°
2026-04-29 09:54 32.54623 131.76278 38074 ft 428 kts 236°
2026-04-29 09:54 32.50790 131.70870 38072 ft 429 kts 236°
2026-04-29 09:55 32.46954 131.65463 38072 ft 429 kts 235°
2026-04-29 09:55 32.43108 131.60056 38070 ft 429 kts 235°
2026-04-29 09:56 32.39259 131.54655 38068 ft 429 kts 235°
2026-04-29 09:56 32.35381 131.49275 38064 ft 430 kts 234°
2026-04-29 09:57 32.31535 131.43865 38069 ft 429 kts 234°
2026-04-29 09:57 32.27690 131.38462 38067 ft 430 kts 234°
2026-04-29 09:58 32.23854 131.33104 38051 ft 429 kts 234°
2026-04-29 09:58 32.19989 131.27723 38070 ft 430 kts 234°
2026-04-29 09:59 32.16121 131.22339 38063 ft 430 kts 234°
2026-04-29 09:59 32.12250 131.16960 38059 ft 429 kts 234°
2026-04-29 10:00 32.08384 131.11588 38069 ft 430 kts 234°
2026-04-29 10:00 32.04511 131.06232 38062 ft 429 kts 234°
2026-04-29 10:01 32.00638 131.00886 38057 ft 429 kts 234°
2026-04-29 10:01 31.96766 130.95528 38033 ft 429 kts 234°
2026-04-29 10:02 31.92886 130.90159 38067 ft 431 kts 234°
2026-04-29 10:02 31.89004 130.84810 38050 ft 428 kts 234°
2026-04-29 10:03 31.85142 130.79500 38048 ft 427 kts 234°
2026-04-29 10:03 31.81277 130.74178 38046 ft 429 kts 234°
2026-04-29 10:04 31.77397 130.68845 38050 ft 430 kts 234°
2026-04-29 10:04 31.73506 130.63509 38048 ft 430 kts 234°
2026-04-29 10:05 31.69610 130.58180 38023 ft 430 kts 233°
2026-04-29 10:05 31.65878 130.52730 38049 ft 427 kts 237°
2026-04-29 10:06 31.62332 130.47199 38059 ft 427 kts 237°
2026-04-29 10:06 31.58742 130.41644 38044 ft 427 kts 237°
2026-04-29 10:07 31.55118 130.36117 38045 ft 427 kts 236°
2026-04-29 10:07 31.51479 130.30607 38045 ft 428 kts 236°
2026-04-29 10:08 31.47832 130.25096 38058 ft 428 kts 236°
2026-04-29 10:08 31.44189 130.19595 38050 ft 427 kts 236°
2026-04-29 10:09 31.40545 130.14100 38054 ft 428 kts 236°
2026-04-29 10:09 31.36896 130.08605 38051 ft 427 kts 236°
2026-04-29 10:10 31.33249 130.03117 38049 ft 427 kts 236°
2026-04-29 10:10 31.29602 129.97636 38021 ft 427 kts 236°
2026-04-29 10:11 31.25951 129.92169 38056 ft 426 kts 236°
2026-04-29 10:11 31.22314 129.86720 38052 ft 425 kts 236°
2026-04-29 10:12 31.18675 129.81271 38056 ft 425 kts 236°
2026-04-29 10:12 31.15056 129.75863 38051 ft 425 kts 236°
2026-04-29 10:13 31.11393 129.70400 38057 ft 424 kts 236°
2026-04-29 10:13 31.07782 129.65022 38060 ft 424 kts 236°
2026-04-29 10:14 31.04143 129.59607 38060 ft 424 kts 236°
2026-04-29 10:14 31.00503 129.54201 38062 ft 424 kts 235°
2026-04-29 10:15 30.96857 129.48793 38058 ft 424 kts 235°
2026-04-29 10:15 30.93211 129.43392 38057 ft 424 kts 235°
2026-04-29 10:16 30.90156 129.38874 38062 ft 424 kts 235°
2026-04-29 10:16 30.85914 129.32607 38057 ft 425 kts 235°
2026-04-29 10:17 30.82847 129.28081 38063 ft 425 kts 235°
2026-04-29 10:17 30.79181 129.22679 38057 ft 425 kts 235°
2026-04-29 10:18 30.75525 129.17278 38055 ft 425 kts 236°
2026-04-29 10:18 30.71944 129.11811 38057 ft 426 kts 236°
2026-04-29 10:19 30.68367 129.06320 38057 ft 426 kts 236°
2026-04-29 10:19 30.64798 129.00876 38050 ft 426 kts 236°
2026-04-29 10:20 30.61197 128.95411 38053 ft 426 kts 236°
2026-04-29 10:20 30.57589 128.89947 38049 ft 427 kts 236°
2026-04-29 10:21 30.53972 128.84473 38053 ft 427 kts 236°
2026-04-29 10:21 30.50353 128.79007 38053 ft 427 kts 236°
2026-04-29 10:22 30.46734 128.73548 38048 ft 427 kts 236°
2026-04-29 10:22 30.43113 128.68091 38044 ft 428 kts 236°
2026-04-29 10:23 30.39477 128.62621 38047 ft 428 kts 236°
2026-04-29 10:23 30.35846 128.57165 38042 ft 428 kts 236°
2026-04-29 10:24 30.32210 128.51711 38042 ft 428 kts 236°
2026-04-29 10:24 30.28574 128.46261 38041 ft 428 kts 236°
2026-04-29 10:25 30.24929 128.40806 38048 ft 429 kts 236°
2026-04-29 10:25 30.21277 128.35349 38040 ft 429 kts 236°
2026-04-29 10:26 30.17625 128.29900 38033 ft 429 kts 236°
2026-04-29 10:26 30.13968 128.24450 38037 ft 429 kts 236°
2026-04-29 10:27 30.08479 128.16283 38031 ft 429 kts 236°
2026-04-29 10:28 30.04819 128.10846 38035 ft 429 kts 236°
2026-04-29 10:28 30.01155 128.05411 38029 ft 429 kts 236°
2026-04-29 10:29 29.97511 128.00013 38031 ft 429 kts 235°
2026-04-29 10:29 29.93839 127.94582 38043 ft 429 kts 236°
2026-04-29 10:30 29.90162 127.89149 38030 ft 430 kts 235°
2026-04-29 10:30 29.86480 127.83718 38035 ft 430 kts 235°
2026-04-29 10:31 29.82671 127.78391 38032 ft 431 kts 232°
2026-04-29 10:31 29.78721 127.73192 38023 ft 432 kts 232°
2026-04-29 10:32 29.74774 127.67980 38030 ft 432 kts 233°
2026-04-29 10:32 29.70842 127.62735 38029 ft 433 kts 233°
2026-04-29 10:33 29.66922 127.57487 38005 ft 432 kts 232°
2026-04-29 10:33 29.63001 127.52245 38002 ft 432 kts 232°
2026-04-29 10:34 29.59076 127.47007 38018 ft 432 kts 233°
2026-04-29 10:34 29.55232 127.41684 38020 ft 433 kts 235°
2026-04-29 10:35 29.51534 127.36231 38010 ft 433 kts 235°
2026-04-29 10:35 29.47825 127.30780 38015 ft 433 kts 234°
2026-04-29 10:36 29.44090 127.25358 38010 ft 433 kts 234°
2026-04-29 10:36 29.40339 127.19948 38006 ft 434 kts 234°
2026-04-29 10:37 29.36579 127.14535 38005 ft 434 kts 234°
2026-04-29 10:37 29.32819 127.09130 38004 ft 434 kts 234°
2026-04-29 10:38 29.29056 127.03725 38000 ft 434 kts 234°
2026-04-29 10:38 29.25292 126.98325 38010 ft 434 kts 234°
2026-04-29 10:39 29.21547 126.92958 37990 ft 435 kts 234°
2026-04-29 10:39 29.17771 126.87554 37993 ft 435 kts 234°
2026-04-29 10:40 29.13990 126.82151 37993 ft 435 kts 234°
2026-04-29 10:40 29.10181 126.76714 37993 ft 435 kts 234°
2026-04-29 10:41 29.06421 126.71355 37970 ft 436 kts 234°
2026-04-29 10:41 29.02623 126.65947 37991 ft 437 kts 234°
2026-04-29 10:42 28.98816 126.60537 37988 ft 437 kts 234°
2026-04-29 10:42 28.94988 126.55148 37991 ft 437 kts 233°
2026-04-29 10:43 28.91053 126.49850 38005 ft 438 kts 232°
2026-04-29 10:43 28.87095 126.44565 37990 ft 439 kts 232°
2026-04-29 10:44 28.83138 126.39257 37987 ft 439 kts 232°
2026-04-29 10:44 28.79186 126.33944 37988 ft 439 kts 232°
2026-04-29 10:45 28.75236 126.28636 37989 ft 439 kts 232°
2026-04-29 10:45 28.71278 126.23324 37989 ft 441 kts 232°
2026-04-29 10:46 28.67289 126.17975 37985 ft 444 kts 232°
2026-04-29 10:46 28.63284 126.12616 37982 ft 445 kts 232°
2026-04-29 10:47 28.59368 126.07171 37981 ft 444 kts 233°
2026-04-29 10:47 28.55519 126.01675 37979 ft 444 kts 234°
2026-04-29 10:48 28.51662 125.96196 37977 ft 444 kts 233°
2026-04-29 10:48 28.47783 125.90729 37977 ft 444 kts 233°
2026-04-29 10:49 28.43897 125.85269 37973 ft 444 kts 233°
2026-04-29 10:49 28.40008 125.79814 37954 ft 444 kts 233°
2026-04-29 10:50 28.36113 125.74355 37977 ft 445 kts 233°
2026-04-29 10:50 28.32217 125.68904 37964 ft 445 kts 233°
2026-04-29 10:51 28.28345 125.63490 37963 ft 445 kts 233°
2026-04-29 10:51 28.24444 125.58043 37961 ft 445 kts 233°
2026-04-29 10:52 28.20540 125.52598 37957 ft 446 kts 233°
2026-04-29 10:52 28.16620 125.47139 37951 ft 446 kts 233°
2026-04-29 10:53 28.12714 125.41708 37947 ft 444 kts 233°
2026-04-29 10:53 28.08810 125.36286 37947 ft 444 kts 233°
2026-04-29 10:54 28.04908 125.30873 37921 ft 444 kts 232°
2026-04-29 10:54 28.00985 125.25439 37939 ft 446 kts 232°
2026-04-29 10:55 27.97056 125.20003 37936 ft 446 kts 233°
2026-04-29 10:55 27.93132 125.14580 37936 ft 445 kts 233°
2026-04-29 10:56 27.89209 125.09164 37930 ft 445 kts 233°
2026-04-29 10:56 27.85278 125.03746 37928 ft 447 kts 232°
2026-04-29 10:57 27.81335 124.98319 37935 ft 447 kts 233°
2026-04-29 10:57 27.77382 124.92884 37925 ft 448 kts 233°
2026-04-29 10:58 27.73428 124.87453 37925 ft 448 kts 233°
2026-04-29 10:58 27.69495 124.82058 37917 ft 449 kts 232°
2026-04-29 10:59 27.65519 124.76611 37922 ft 451 kts 232°
2026-04-29 10:59 27.61527 124.71154 37921 ft 451 kts 233°
2026-04-29 11:00 27.57509 124.65664 37921 ft 451 kts 233°
2026-04-29 11:00 27.53517 124.60203 37919 ft 451 kts 233°
2026-04-29 11:01 27.50197 124.55664 37914 ft 452 kts 233°
2026-04-29 11:01 27.46188 124.50195 37911 ft 453 kts 233°
2026-04-29 11:02 27.42177 124.44734 37914 ft 453 kts 233°
2026-04-29 11:02 27.37514 124.38392 37918 ft 452 kts 233°
2026-04-29 11:03 27.33499 124.32938 37911 ft 453 kts 233°
2026-04-29 11:03 27.30135 124.28374 37911 ft 453 kts 233°
2026-04-29 11:04 27.26115 124.22927 37921 ft 453 kts 233°
2026-04-29 11:04 27.22097 124.17491 37915 ft 451 kts 233°
2026-04-29 11:05 27.18085 124.12068 37921 ft 451 kts 233°
2026-04-29 11:05 27.14073 124.06649 37914 ft 453 kts 233°
2026-04-29 11:06 27.10068 124.01248 37917 ft 453 kts 233°
2026-04-29 11:06 27.06015 123.95823 37919 ft 453 kts 233°
2026-04-29 11:07 27.01950 123.90431 37915 ft 452 kts 233°
2026-04-29 11:07 26.97891 123.85052 37894 ft 452 kts 233°
2026-04-29 11:08 26.93821 123.79658 37917 ft 454 kts 233°
2026-04-29 11:08 26.89743 123.74257 37918 ft 454 kts 233°
2026-04-29 11:09 26.85719 123.68815 37916 ft 453 kts 234°
2026-04-29 11:09 26.81879 123.63236 37987 ft 451 kts 237°
2026-04-29 11:10 26.78344 123.57475 38023 ft 448 kts 240°
2026-04-29 11:10 26.75200 123.51463 37964 ft 448 kts 244°
2026-04-29 11:11 26.72521 123.45177 37878 ft 447 kts 249°
2026-04-29 11:11 26.70384 123.38667 37918 ft 444 kts 254°
2026-04-29 11:12 26.68837 123.32002 37970 ft 443 kts 259°
2026-04-29 11:12 26.67904 123.25199 37905 ft 443 kts 264°
2026-04-29 11:13 26.67604 123.18311 37842 ft 444 kts 270°
2026-04-29 11:13 26.67956 123.11428 37894 ft 443 kts 275°
2026-04-29 11:14 26.68968 123.04651 37984 ft 442 kts 281°
2026-04-29 11:14 26.70607 122.98064 37927 ft 444 kts 286°
2026-04-29 11:15 26.72879 122.91608 37835 ft 448 kts 291°
2026-04-29 11:15 26.75363 122.86152 37882 ft 449 kts 296°